Decatur, AL

10:43 AM CDT on May 25, 2018 (GMT -0500)
Pryor Regional

Weather History for KDCU - October, 2011

Change the Weather History Date:

Thursday, October 27, 2011

  Actual Average Record
Temperature  
Mean Temperature 60 °F -  
Max Temperature 70 °F 71 °F 85 °F (1963)
Min Temperature 51 °F 44 °F 26 °F (1961)
Degree Days  
Heating Degree Days 5    
Growing Degree Days 10 (Base 50)    
Moisture  
Dew Point 50 °F    
Average Humidity 78    
Maximum Humidity 92    
Minimum Humidity 63    
Precipitation  
Precipitation 0.03 in - - ()
Sea Level Pressure  
Sea Level Pressure 29.96 in    
Wind  
Wind Speed 7 mph (NNW)    
Max Wind Speed 20 mph    
Max Gust Speed 24 mph    
Visibility 9 miles    
Events Rain    
Averages and records for this station are not official NWS values.
T = Trace of Precipitation, MM = Missing Value Source: NWS Daily Summary

Daily Weather History Graph

Daily Weather History Graph

Search for Another Location

Airport or City:

Astronomy

Oct. 27, 2011 Rise Set
Actual Time 7:03 AM CDT 5:59 PM CDT
Civil Twilight 6:37 AM CDT 6:25 PM CDT
Nautical Twilight 6:08 AM CDT 6:54 PM CDT
Astronomical Twilight 5:38 AM CDT 7:24 PM CDT
Moon 8:01 AM CDT (10/27) 6:33 PM CDT (10/27)
Length of Visible Light 11h 47m
Length of Day
10h 55m
New Moon, 1% of the Moon is Illuminated
Oct 27
New Moon
Nov 2
First Quarter
Nov 10
Full
Nov 18
Last Quarter
Nov 25
New

Hourly Weather History & Observations

Time (CDT) Temp. Dew Point Humidity Pressure Visibility Wind Dir Wind Speed Gust Speed Precip Events Conditions
12:53 AM 51.1 °F 45.0 °F 80% 29.93 in 10.0 mi Calm Calm - N/A   Clear
1:53 AM 55.9 °F 46.0 °F 69% 29.92 in 10.0 mi South 3.5 mph - N/A   Clear
3:53 AM 57.0 °F 46.9 °F 69% 29.90 in 10.0 mi SSW 6.9 mph - N/A   Clear
4:53 AM 54.0 °F 46.9 °F 77% 29.90 in 10.0 mi South 6.9 mph - N/A   Clear
5:53 AM 55.9 °F 48.0 °F 75% 29.90 in 10.0 mi SE 6.9 mph - N/A   Clear
7:53 AM 59.0 °F 51.1 °F 75% 29.92 in 10.0 mi South 6.9 mph - N/A   Overcast
8:53 AM 63.0 °F 52.0 °F 67% 29.91 in 10.0 mi SSW 5.8 mph - N/A   Mostly Cloudy
9:53 AM 64.9 °F 53.1 °F 65% 29.91 in 10.0 mi SW 5.8 mph - N/A   Overcast
10:19 AM 66.2 °F 55.4 °F 68% 29.92 in 9.0 mi WSW 6.9 mph - N/A   Overcast
10:53 AM 69.1 °F 55.9 °F 63% 29.91 in 9.0 mi West 11.5 mph - N/A   Overcast
11:53 AM 68.0 °F 55.0 °F 63% 29.91 in 10.0 mi West 8.1 mph - N/A   Overcast
12:36 PM 68.0 °F 55.4 °F 64% 29.92 in 9.0 mi West 13.8 mph - N/A   Overcast
12:53 PM 68.0 °F 55.0 °F 63% 29.91 in 9.0 mi West 11.5 mph - N/A   Overcast
1:53 PM 68.0 °F 55.0 °F 63% 29.89 in 8.0 mi West 8.1 mph - N/A   Overcast
2:07 PM 66.2 °F 55.4 °F 68% 29.91 in 8.0 mi NW 6.9 mph - 0.00 in Rain Light Rain
2:53 PM 60.1 °F 53.1 °F 78% 29.93 in 10.0 mi North 17.3 mph - 0.00 in   Overcast
3:14 PM 57.2 °F 51.8 °F 82% 29.95 in 10.0 mi North 18.4 mph - N/A   Overcast
3:23 PM 57.2 °F 51.8 °F 82% 29.95 in 10.0 mi North 15.0 mph - N/A   Overcast
3:34 PM 55.4 °F 50.0 °F 82% 29.95 in 10.0 mi North 19.6 mph 24.2 mph N/A   Overcast
3:53 PM 55.9 °F 50.0 °F 80% 29.95 in 10.0 mi North 11.5 mph - N/A   Overcast
4:53 PM 54.0 °F 50.0 °F 86% 29.97 in 8.0 mi North 8.1 mph - N/A   Overcast
5:53 PM 53.1 °F 48.9 °F 86% 29.99 in 6.0 mi NNE 5.8 mph - 0.01 in   Overcast
6:22 PM 51.8 °F 48.2 °F 88% 30.00 in 6.0 mi North 9.2 mph - N/A   Overcast
6:53 PM 51.1 °F 48.9 °F 92% 30.01 in 3.0 mi North 9.2 mph - 0.01 in Rain Light Rain
7:25 PM 51.8 °F 48.2 °F 88% 30.03 in 9.0 mi North 9.2 mph - 0.01 in Rain Light Rain
7:53 PM 51.1 °F 48.0 °F 89% 30.01 in 8.0 mi NNE 8.1 mph - 0.01 in   Overcast
8:13 PM 51.8 °F 48.2 °F 88% 30.02 in 8.0 mi North 6.9 mph - N/A   Overcast
8:30 PM 51.8 °F 48.2 °F 88% 30.04 in 7.0 mi North 10.4 mph - 0.00 in Rain Light Rain
8:53 PM 51.1 °F 48.0 °F 89% 30.04 in 8.0 mi North 8.1 mph - 0.00 in   Overcast
9:53 PM 51.1 °F 46.9 °F 86% 30.04 in 7.0 mi North 9.2 mph - N/A   Overcast
10:53 PM 51.1 °F 46.9 °F 86% 30.03 in 8.0 mi NNE 10.4 mph - N/A   Overcast
11:46 PM 51.8 °F 46.4 °F 82% 30.01 in 10.0 mi NE 6.9 mph - N/A   Overcast
11:53 PM 51.1 °F 46.0 °F 83% 30.01 in 10.0 mi NE 6.9 mph - N/A   Overcast